Retour au catalogue

CALIPSO

ActifScienceSSO
NORAD 29108·PAYLOAD·🇫🇷 France

Lancé Apr 28, 2006 depuis Vandenberg Space Force Base

Loading…

Prochains Passages (prochaines 24 heures)

TLE

FraisSource: Space-Track

Époque: Sep 14, 2026, 13:39 UTC

1 29108U 06016B   26257.56879387  .00000584  00000-0  10743-3 0  9993
2 29108  98.4466 276.2868 0001388  71.8251 288.3105 14.69487233 86189

Suivez CALIPSO en temps réel avec AllMySat

Download on the App Store